Regional Weather Roundup
Issued by NWS

Home | Current Version | Previous Version | Text Only | Print | Product List | Glossary On
Versions: 1 2 3 4 5 6 7 8 9 10 11 12 13 14 15 16 17 18 19 20 21 22 23 24 25 26 27 28 29 30 31 32 33 34 35 36 37 38 39 40 41 42 43 44 45 46 47 48 49 50
856
ASUS43 KBIS 071410
RWRND

NORTH DAKOTA REGIONAL WEATHER ROUNDUP
NATIONAL WEATHER SERVICE BISMARCK ND
800 AM CST SUN FEB 07 2016

NOTE: "FAIR" INDICATES FEW OR NO CLOUDS BELOW 12,000 FEET WITH NO
SIGNIFICANT WEATHER AND/OR OBSTRUCTIONS TO VISIBILITY.


NDZ001>003-009>011-017-071500-
NORTHWEST NORTH DAKOTA

CITY           SKY/WX    TMP DP  RH WIND       PRES   REMARKS
WILLISTON      CLOUDY    31  23  72 NW36G49   29.97R WCI  15
MINOT          FLURRIES  33  20  58 NW33G47   29.75R WCI  18
$$

NDZ018>021-031>035-040>046-071500-
SOUTHWEST NORTH DAKOTA

CITY           SKY/WX    TMP DP  RH WIND       PRES   REMARKS
BISMARCK       FLURRIES  35  28  75 W21G39    29.80R
DICKINSON      FLURRIES  28  22  78 NW30G41   29.90R WCI  12
GARRISON         N/A     30  24  78 NW33G46   29.78R WCI  14
HETTINGER ARPT CLOUDY    30  19  63 NW32G43   29.95R WCI  14
$$

NDZ004>008-012>016-024-026-027-054-071500-
NORTHEAST NORTH DAKOTA

CITY           SKY/WX    TMP DP  RH WIND       PRES   REMARKS
GRAND FORKS    CLOUDY    36  29  75 NW22      29.53R
GRND FRKS AFB  MOCLDY    36  28  75 NW17G29   29.54R
DEVILS LAKE    CLOUDY    33  30  88 NW31G37   29.57S WCI  19
$$

NDZ022-023-025-028>030-036>039-047>053-071500-
SOUTHEAST NORTH DAKOTA

CITY           SKY/WX    TMP DP  RH WIND       PRES   REMARKS
FARGO          CLOUDY    36  27  69 W21       29.60R
JAMESTOWN      CLOUDY    34  26  72 NW26G36   29.64R
$$





USA.gov is the U.S. government's official web portal to all federal, state and local government web resources and services.